| time (UTC) | temp C | wind direction | speed KPH | gust KPH | rain 1hr cm | rain 24hr cm | rain mn cm | humidity % | barometer mb |
| 20260504042001 | 8 | 235 | 9.7 | 17.7 | 0.00 | 0.00 | 0.00 | 56 | 1010.9 |
| 20260504041501 | 8 | 266 | 9.7 | 17.7 | 0.00 | 0.00 | 0.00 | 55 | 1010.8 |
| 20260504040959 | 8 | 252 | 9.7 | 19.3 | 0.00 | 0.00 | 0.00 | 55 | 1010.9 |
| 20260504040500 | 8 | 238 | 9.7 | 19.3 | 0.00 | 0.00 | 0.00 | 55 | 1010.9 |
| 20260504040001 | 8 | 219 | 9.7 | 16.1 | 0.00 | 0.00 | 0.00 | 55 | 1011.0 |
| 20260504035500 | 8 | 241 | 9.7 | 17.7 | 0.00 | 0.00 | 0.00 | 54 | 1010.9 |
| 20260504035000 | 8 | 226 | 9.7 | 17.7 | 0.00 | 0.00 | 0.00 | 54 | 1010.9 |
| 20260504034500 | 8 | 230 | 9.7 | 16.1 | 0.00 | 0.00 | 0.00 | 54 | 1010.9 |
| 20260504034001 | 8 | 259 | 6.4 | 19.3 | 0.00 | 0.00 | 0.00 | 54 | 1010.9 |
| 20260504033500 | 8 | 231 | 11.3 | 20.9 | 0.00 | 0.00 | 0.00 | 54 | 1010.9 |
| 20260504033000 | 8 | 269 | 8.0 | 20.9 | 0.00 | 0.00 | 0.00 | 54 | 1010.9 |
| 20260504032738 | 8 | 237 | 8.0 | 16.1 | 0.00 | 0.00 | 0.00 | 54 | 1010.8 |
| 20260504032000 | 8 | 254 | 9.7 | 17.7 | 0.00 | 0.00 | 0.00 | 53 | 1010.9 |
| 20260504031500 | 8 | 265 | 9.7 | 17.7 | 0.00 | 0.00 | 0.00 | 53 | 1011.0 |
| 20260504031000 | 8 | 238 | 8.0 | 14.5 | 0.00 | 0.00 | 0.00 | 53 | 1011.0 |
| 20260504030501 | 8 | 238 | 8.0 | 16.1 | 0.00 | 0.00 | 0.00 | 52 | 1011.1 |
| 20260504030239 | 8 | 237 | 6.4 | 16.1 | 0.00 | 0.00 | 0.00 | 52 | 1011.0 |
| 20260504025459 | 8 | 254 | 8.0 | 14.5 | 0.00 | 0.00 | 0.00 | 52 | 1011.0 |
| 20260504025000 | 9 | 264 | 4.8 | 11.3 | 0.00 | 0.00 | 0.00 | 51 | 1011.1 |
| 20260504024500 | 9 | 223 | 6.4 | 14.5 | 0.00 | 0.00 | 0.00 | 51 | 1011.1 |
| 20260504024002 | 9 | 282 | 6.4 | 14.5 | 0.00 | 0.00 | 0.00 | 51 | 1011.0 |
| 20260504023500 | 9 | 244 | 4.8 | 14.5 | 0.00 | 0.00 | 0.00 | 50 | 1011.2 |
| 20260504023000 | 9 | 243 | 6.4 | 11.3 | 0.00 | 0.00 | 0.00 | 51 | 1011.1 |
| 20260504022500 | 9 | 235 | 6.4 | 11.3 | 0.00 | 0.00 | 0.00 | 50 | 1011.2 |
| 20260504022000 | 9 | 258 | 6.4 | 14.5 | 0.00 | 0.00 | 0.00 | 50 | 1011.1 |
| 20260504021500 | 9 | 282 | 8.0 | 14.5 | 0.00 | 0.00 | 0.00 | 50 | 1011.2 |
| 20260504021000 | 10 | 288 | 9.7 | 14.5 | 0.00 | 0.00 | 0.00 | 50 | 1011.1 |
| 20260504020501 | 10 | 265 | 8.0 | 19.3 | 0.00 | 0.00 | 0.00 | 49 | 1011.1 |
| 20260504020002 | 10 | 259 | 9.7 | 19.3 | 0.00 | 0.00 | 0.00 | 49 | 1011.1 |
| 20260504015500 | 10 | 227 | 9.7 | 17.7 | 0.00 | 0.00 | 0.00 | 49 | 1011.0 |
| 20260504015001 | 10 | 299 | 8.0 | 14.5 | 0.00 | 0.00 | 0.00 | 49 | 1011.0 |
| 20260504014459 | 10 | 281 | 8.0 | 16.1 | 0.00 | 0.00 | 0.00 | 48 | 1011.0 |
| 20260504014024 | 10 | 261 | 6.4 | 11.3 | 0.00 | 0.00 | 0.00 | 48 | 1010.8 |
| 20260504014013 | 10 | 252 | 8.0 | 16.1 | 0.00 | 0.00 | 0.00 | 48 | 1011.0 |
| 20260504013000 | 10 | 244 | 8.0 | 11.3 | 0.00 | 0.00 | 0.00 | 48 | 1010.8 |
| 20260504012742 | 10 | 248 | 4.8 | 11.3 | 0.00 | 0.00 | 0.00 | 48 | 1010.8 |
| 20260504012000 | 10 | 248 | 6.4 | 16.1 | 0.00 | 0.00 | 0.00 | 48 | 1010.8 |
| 20260504011500 | 10 | 295 | 8.0 | 16.1 | 0.00 | 0.00 | 0.00 | 48 | 1010.8 |
| 20260504011240 | 10 | 261 | 8.0 | 16.1 | 0.00 | 0.00 | 0.00 | 47 | 1010.7 |
| 20260504010739 | 10 | 250 | 8.0 | 19.3 | 0.00 | 0.00 | 0.00 | 47 | 1010.7 |
| 20260504010000 | 10 | 279 | 8.0 | 19.3 | 0.00 | 0.00 | 0.00 | 47 | 1010.7 |
| 20260504005740 | 10 | 276 | 9.7 | 19.3 | 0.00 | 0.00 | 0.00 | 47 | 1010.6 |
| 20260504005026 | 10 | 251 | 9.7 | 20.9 | 0.00 | 0.00 | 0.00 | 46 | 1010.6 |
| 20260504005015 | 10 | 275 | 11.3 | 19.3 | 0.00 | 0.00 | 0.00 | 47 | 1010.6 |
| 20260504004000 | 11 | 289 | 11.3 | 20.9 | 0.00 | 0.00 | 0.00 | 47 | 1010.7 |
| 20260504003500 | 11 | 259 | 12.9 | 19.3 | 0.00 | 0.00 | 0.00 | 46 | 1010.6 |
| 20260504003003 | 11 | 266 | 9.7 | 20.9 | 0.00 | 0.00 | 0.00 | 46 | 1010.6 |
| 20260504002459 | 11 | 247 | 12.9 | 20.9 | 0.00 | 0.00 | 0.00 | 46 | 1010.6 |
| 20260504002000 | 11 | 261 | 8.0 | 16.1 | 0.00 | 0.00 | 0.00 | 46 | 1010.6 |
| 20260504001500 | 11 | 265 | 8.0 | 17.7 | 0.00 | 0.00 | 0.00 | 46 | 1010.6 |
| 20260504001000 | 11 | 268 | 8.0 | 17.7 | 0.00 | 0.00 | 0.00 | 46 | 1010.4 |
| 20260504000459 | 11 | 230 | 11.3 | 17.7 | 0.00 | 0.00 | 0.00 | 45 | 1010.5 |
| 20260503235959 | 11 | 285 | 9.7 | 20.9 | 0.00 | 0.00 | 0.00 | 45 | 1010.5 |
| 20260503235740 | 11 | 251 | 11.3 | 20.9 | 0.00 | 0.00 | 0.00 | 45 | 1010.4 |
| 20260503235000 | 11 | 265 | 14.5 | 27.4 | 0.00 | 0.00 | 0.00 | 44 | 1010.4 |
| 20260503234459 | 11 | 252 | 14.5 | 27.4 | 0.00 | 0.00 | 0.00 | 44 | 1010.4 |
| 20260503234000 | 11 | 240 | 14.5 | 24.1 | 0.00 | 0.00 | 0.00 | 44 | 1010.2 |
| 20260503233500 | 11 | 250 | 14.5 | 24.1 | 0.00 | 0.00 | 0.00 | 44 | 1010.2 |
| 20260503233000 | 11 | 243 | 12.9 | 24.1 | 0.00 | 0.00 | 0.00 | 44 | 1010.2 |
| 20260503232500 | 11 | 254 | 9.7 | 24.1 | 0.00 | 0.00 | 0.00 | 43 | 1010.1 |
| 20260503232000 | 12 | 268 | 9.7 | 19.3 | 0.00 | 0.00 | 0.00 | 43 | 1010.1 |
| 20260503231459 | 12 | 292 | 11.3 | 22.5 | 0.00 | 0.00 | 0.00 | 44 | 1010.1 |
| 20260503231000 | 12 | 272 | 14.5 | 30.6 | 0.00 | 0.00 | 0.00 | 42 | 1010.0 |
| 20260503230949 | 12 | 268 | 16.1 | 32.2 | 0.00 | 0.00 | 0.00 | 43 | 1010.0 |
| 20260503230001 | 12 | 317 | 20.9 | 37.0 | 0.00 | 0.00 | 0.00 | 43 | 1009.8 |
| 20260503225500 | 12 | 299 | 24.1 | 45.1 | 0.00 | 0.00 | 0.00 | 42 | 1009.9 |
| 20260503225000 | 12 | 264 | 20.9 | 45.1 | 0.00 | 0.00 | 0.00 | 44 | 1010.0 |
| 20260503224500 | 11 | 283 | 16.1 | 29.0 | 0.00 | 0.00 | 0.00 | 44 | 1010.0 |
| 20260503224000 | 11 | 281 | 19.3 | 29.0 | 0.00 | 0.00 | 0.00 | 43 | 1009.9 |
| 20260503223501 | 11 | 275 | 16.1 | 29.0 | 0.00 | 0.00 | 0.00 | 45 | 1009.8 |
| 20260503223240 | 11 | 281 | 16.1 | 29.0 | 0.00 | 0.00 | 0.00 | 46 | 1009.9 |
| 20260503222459 | 11 | 275 | 19.3 | 37.0 | 0.00 | 0.00 | 0.00 | 45 | 1009.9 |
| 20260503221959 | 11 | 275 | 16.1 | 37.0 | 0.00 | 0.00 | 0.00 | 45 | 1010.0 |
| 20260503221500 | 11 | 259 | 22.5 | 37.0 | 0.00 | 0.00 | 0.00 | 45 | 1009.8 |
| 20260503220959 | 11 | 269 | 16.1 | 37.0 | 0.00 | 0.00 | 0.00 | 44 | 1010.0 |
| 20260503220500 | 11 | 285 | 22.5 | 37.0 | 0.00 | 0.00 | 0.00 | 45 | 1009.9 |
| 20260503215959 | 11 | 241 | 19.3 | 35.4 | 0.00 | 0.00 | 0.00 | 45 | 1010.0 |
| 20260503215758 | 11 | 248 | 20.9 | 32.2 | 0.00 | 0.00 | 0.00 | 44 | 1010.0 |
| 20260503215753 | 11 | 272 | 17.7 | 35.4 | 0.00 | 0.00 | 0.00 | 45 | 1010.0 |
| 20260503214741 | 11 | 255 | 19.3 | 32.2 | 0.00 | 0.00 | 0.00 | 45 | 1010.0 |
| 20260503214000 | 11 | 302 | 17.7 | 30.6 | 0.00 | 0.00 | 0.00 | 45 | 1010.0 |
| 20260503213459 | 11 | 279 | 19.3 | 30.6 | 0.00 | 0.00 | 0.00 | 45 | 1010.0 |
| 20260503212959 | 11 | 286 | 19.3 | 35.4 | 0.00 | 0.00 | 0.00 | 45 | 1010.0 |
| 20260503212501 | 11 | 245 | 25.7 | 35.4 | 0.00 | 0.00 | 0.00 | 44 | 1009.9 |
| 20260503211959 | 11 | 283 | 20.9 | 32.2 | 0.00 | 0.00 | 0.00 | 44 | 1009.9 |
| 20260503211459 | 11 | 279 | 19.3 | 33.8 | 0.00 | 0.00 | 0.00 | 45 | 1009.9 |
| 20260503210959 | 11 | 275 | 19.3 | 43.5 | 0.00 | 0.00 | 0.00 | 46 | 1009.9 |
| 20260503210459 | 11 | 296 | 24.1 | 43.5 | 0.00 | 0.00 | 0.00 | 44 | 1009.8 |
| 20260503210448 | 11 | 259 | 19.3 | 33.8 | 0.00 | 0.00 | 0.00 | 46 | 1009.9 |
| 20260503205739 | 12 | 293 | 20.9 | 37.0 | 0.00 | 0.00 | 0.00 | 45 | 1010.0 |
| 20260503205000 | 12 | 279 | 19.3 | 37.0 | 0.00 | 0.00 | 0.00 | 45 | 1009.9 |
| 20260503204459 | 12 | 281 | 22.5 | 38.6 | 0.00 | 0.00 | 0.00 | 45 | 1010.0 |
| 20260503203959 | 11 | 243 | 19.3 | 45.1 | 0.00 | 0.00 | 0.00 | 46 | 1010.1 |
| 20260503203738 | 11 | 296 | 22.5 | 45.1 | 0.00 | 0.00 | 0.00 | 46 | 1010.0 |
| 20260503203225 | 11 | 288 | 22.5 | 35.4 | 0.00 | 0.00 | 0.00 | 47 | 1010.2 |
| 20260503202459 | 11 | 257 | 20.9 | 35.4 | 0.00 | 0.00 | 0.00 | 46 | 1010.1 |
| 20260503202217 | 11 | 279 | 24.1 | 45.1 | 0.00 | 0.00 | 0.00 | 47 | 1010.2 |
| 20260503201726 | 11 | 258 | 30.6 | 45.1 | 0.00 | 0.00 | 0.00 | 46 | 1010.2 |
| 20260503200959 | 11 | 244 | 24.1 | 41.8 | 0.00 | 0.00 | 0.00 | 46 | 1010.2 |
| 20260503200739 | 11 | 271 | 22.5 | 46.7 | 0.00 | 0.00 | 0.00 | 46 | 1010.2 |
| 20260503195959 | 11 | 298 | 20.9 | 48.3 | 0.00 | 0.00 | 0.00 | 48 | 1010.4 |
| 20260503195500 | 11 | 296 | 27.4 | 48.3 | 0.00 | 0.00 | 0.00 | 46 | 1010.5 |
| 20260503195444 | 11 | 278 | 25.7 | 38.6 | 0.00 | 0.00 | 0.00 | 47 | 1010.1 |
| 20260503194719 | 11 | 275 | 29.0 | 38.6 | 0.00 | 0.00 | 0.00 | 47 | 1010.6 |
| 20260503194223 | 11 | 281 | 17.7 | 29.0 | 0.00 | 0.00 | 0.00 | 48 | 1010.7 |
| 20260503192723 | 11 | 265 | 17.7 | 37.0 | 0.00 | 0.00 | 0.00 | 47 | 1010.9 |
| 20260503192000 | 11 | 278 | 17.7 | 35.4 | 0.00 | 0.00 | 0.00 | 48 | 1010.9 |
| 20260503191459 | 11 | 298 | 17.7 | 35.4 | 0.00 | 0.00 | 0.00 | 46 | 1011.0 |
| 20260503191001 | 11 | 298 | 25.7 | 35.4 | 0.00 | 0.00 | 0.00 | 45 | 1011.0 |
| 20260503190458 | 11 | 310 | 17.7 | 32.2 | 0.00 | 0.00 | 0.00 | 47 | 1011.0 |
| 20260503185959 | 11 | 285 | 19.3 | 46.7 | 0.00 | 0.00 | 0.00 | 46 | 1011.0 |
| 20260503185459 | 11 | 272 | 19.3 | 46.7 | 0.00 | 0.00 | 0.00 | 47 | 1011.1 |
| 20260503184959 | 11 | 295 | 27.4 | 41.8 | 0.00 | 0.00 | 0.00 | 48 | 1011.1 |
| 20260503184459 | 11 | 250 | 20.9 | 41.8 | 0.00 | 0.00 | 0.00 | 47 | 1011.1 |
| 20260503184000 | 11 | 283 | 24.1 | 38.6 | 0.00 | 0.00 | 0.00 | 48 | 1011.2 |
| 20260503183726 | 11 | 274 | 22.5 | 37.0 | 0.00 | 0.00 | 0.00 | 47 | 1011.2 |
| 20260503183250 | 11 | 303 | 19.3 | 37.0 | 0.00 | 0.00 | 0.00 | 47 | 1011.3 |
| 20260503182532 | 11 | 302 | 22.5 | 35.4 | 0.00 | 0.00 | 0.00 | 46 | 1011.3 |
| 20260503182517 | 11 | 268 | 20.9 | 35.4 | 0.00 | 0.00 | 0.00 | 48 | 1011.3 |
| 20260503181725 | 11 | 288 | 19.3 | 33.8 | 0.00 | 0.00 | 0.00 | 47 | 1011.3 |
| 20260503181007 | 11 | 262 | 20.9 | 43.5 | 0.00 | 0.00 | 0.00 | 47 | 1011.4 |
| 20260503180001 | 11 | 276 | 30.6 | 43.5 | 0.00 | 0.00 | 0.00 | 50 | 1011.2 |
| 20260503175500 | 11 | 285 | 12.9 | 37.0 | 0.00 | 0.00 | 0.00 | 50 | 1011.4 |
| 20260503175238 | 11 | 282 | 24.1 | 37.0 | 0.00 | 0.00 | 0.00 | 47 | 1011.4 |
| 20260503174940 | 11 | 285 | 24.1 | 43.5 | 0.00 | 0.00 | 0.00 | 47 | 1011.5 |
| 20260503174226 | 11 | 265 | 22.5 | 43.5 | 0.00 | 0.00 | 0.00 | 48 | 1011.6 |
| 20260503173744 | 11 | 288 | 33.8 | 43.5 | 0.00 | 0.00 | 0.00 | 44 | 1011.5 |
| 20260503173247 | 11 | 230 | 14.5 | 33.8 | 0.00 | 0.00 | 0.00 | 49 | 1011.5 |
| 20260503172500 | 11 | 247 | 20.9 | 35.4 | 0.00 | 0.00 | 0.00 | 50 | 1011.5 |
| 20260503172439 | 10 | 298 | 17.7 | 35.4 | 0.00 | 0.00 | 0.00 | 47 | 1011.7 |
| 20260503171738 | 10 | 292 | 24.1 | 37.0 | 0.00 | 0.00 | 0.00 | 48 | 1011.6 |
| 20260503170959 | 10 | 288 | 17.7 | 41.8 | 0.00 | 0.00 | 0.00 | 49 | 1011.7 |
| 20260503170459 | 10 | 292 | 17.7 | 41.8 | 0.00 | 0.00 | 0.00 | 50 | 1011.7 |
| 20260503170220 | 10 | 326 | 16.1 | 38.6 | 0.00 | 0.00 | 0.00 | 47 | 1011.7 |
| 20260503150959 | 7 | 286 | 12.9 | 33.8 | 0.00 | 0.00 | 0.00 | 55 | 1013.0 |
| 20260503150742 | 8 | 289 | 24.1 | 32.2 | 0.00 | 0.00 | 0.00 | 53 | 1013.0 |
| 20260503131121 | 4 | 276 | 16.1 | 24.1 | 0.00 | 0.00 | 0.00 | 67 | 1013.4 |
| 20260503131059 | 5 | 286 | 14.5 | 30.6 | 0.00 | 0.00 | 0.00 | 66 | 1013.3 |
| 20260503110459 | 0 | 278 | 9.7 | 14.5 | 0.00 | 0.00 | 0.00 | 86 | 1013.2 |
| 20260503090459 | 1 | 296 | 11.3 | 17.7 | 0.00 | 0.00 | 0.00 | 83 | 1012.4 |
| 20260503081458 | 1 | 272 | 6.4 | 11.3 | 0.00 | 0.00 | 0.00 | 82 | 1012.5 |
| 20260503080958 | 1 | 286 | 6.4 | 9.7 | 0.00 | 0.00 | 0.00 | 82 | 1012.5 |
| 20260503080459 | 1 | 288 | 4.8 | 9.7 | 0.00 | 0.00 | 0.00 | 82 | 1012.5 |
| 20260503072459 | 1 | 281 | 8.0 | 14.5 | 0.00 | 0.00 | 0.00 | 82 | 1012.5 |
| 20260503072238 | 1 | 310 | 8.0 | 11.3 | 0.00 | 0.00 | 0.00 | 81 | 1012.6 |
| 20260503071742 | 1 | 283 | 8.0 | 9.7 | 0.00 | 0.00 | 0.00 | 81 | 1012.6 |
| 20260503070958 | 1 | 285 | 8.0 | 9.7 | 0.00 | 0.00 | 0.00 | 81 | 1012.6 |
| 20260503070458 | 1 | 293 | 6.4 | 14.5 | 0.00 | 0.00 | 0.00 | 81 | 1012.5 |
| 20260503054958 | 1 | 283 | 8.0 | 16.1 | 0.00 | 0.00 | 0.00 | 80 | 1012.8 |
| 20260503054457 | 1 | 281 | 8.0 | 14.5 | 0.00 | 0.00 | 0.00 | 80 | 1012.8 |
| 20260503053958 | 1 | 293 | 8.0 | 16.1 | 0.00 | 0.00 | 0.00 | 80 | 1012.8 |
| 20260503053459 | 1 | 295 | 8.0 | 16.1 | 0.00 | 0.00 | 0.00 | 80 | 1012.8 |
| 20260503052957 | 1 | 286 | 4.8 | 8.0 | 0.00 | 0.00 | 0.00 | 80 | 1012.8 |
| 20260503052458 | 1 | 292 | 4.8 | 8.0 | 0.00 | 0.00 | 0.00 | 79 | 1012.9 |
| 20260503051958 | 1 | 290 | 3.2 | 8.0 | 0.00 | 0.00 | 0.00 | 79 | 1012.9 |
| 20260503051458 | 1 | 289 | 4.8 | 8.0 | 0.00 | 0.00 | 0.00 | 79 | 1013.0 |
| 20260503050958 | 1 | 285 | 6.4 | 8.0 | 0.00 | 0.00 | 0.00 | 79 | 1013.0 |
| 20260503050511 | 1 | 285 | 4.8 | 8.0 | 0.00 | 0.00 | 0.00 | 78 | 1013.1 |
| 20260503045458 | 1 | 275 | 4.8 | 8.0 | 0.00 | 0.00 | 0.00 | 78 | 1013.2 |
| 20260503044959 | 1 | 300 | 3.2 | 4.8 | 0.00 | 0.00 | 0.00 | 77 | 1013.2 |
| 20260503044523 | 1 | 300 | 1.6 | 6.4 | 0.00 | 0.00 | 0.00 | 77 | 1013.3 |
| 20260503044512 | 1 | 300 | 1.6 | 6.4 | 0.00 | 0.00 | 0.00 | 77 | 1013.3 |
| 20260503043458 | 1 | 300 | 0.0 | 9.7 | 0.00 | 0.00 | 0.00 | 77 | 1013.3 |
| 20260503043000 | 1 | 300 | 3.2 | 9.7 | 0.00 | 0.00 | 0.00 | 76 | 1013.4 |
| 20260503042459 | 1 | 289 | 4.8 | 8.0 | 0.00 | 0.00 | 0.00 | 76 | 1013.4 |